Regional Weather Roundup
Issued by NWS

Home | Current Version | Previous Version | Graphics & Text | Print | Product List | Glossary On
Versions: 1 2 3 4 5 6 7 8 9 10 11 12 13 14 15 16 17 18 19 20 21 22 23 24 25 26 27 28 29 30 31 32 33 34 35 36 37 38 39 40 41 42 43 44 45 46 47 48 49 50
000
ASUS44 KMEG 220010
RWRTN
TENNESSEE HOURLY STATE WEATHER ROUNDUP
NATIONAL WEATHER SERVICE MEMPHIS TN
600 PM CST SAT JAN 21 2017

TNZ002-004-019-021-049-052-054-088>092-220100-
WEST TENNESSEE

CITY           SKY/WX    TMP DP  RH WIND       PRES   REMARKS
MEMPHIS INTL   MOCLDY    65  51  60 SE7       29.54F
NWS MEMPHIS      N/A     64 N/A N/A MISG        N/A
JACKSON        PTCLDY    65  51  60 CALM      29.58S
DYERSBURG      CLOUDY    64  50  59 S3        29.57R
UNION CITY     CLEAR     61  48  63 CALM      29.56S
PARIS          CLEAR     59  48  67 CALM      29.59R
HUNTINGDON     CLEAR     63  52  67 S6        29.58S
$$

TNZ008-025-027-028-033-062-065-066-220100-
NORTH MIDDLE TENNESSEE

CITY           SKY/WX    TMP DP  RH WIND       PRES   REMARKS
NASHVILLE      CLOUDY    61  49  64 S5        29.63R
PORTLAND       PTCLDY    61  50  67 SE5       29.60F
CLARKSVILLE    CLOUDY    62  47  57 S6        29.60R
SMYRNA         CLOUDY    59  51  75 S3        29.64R
GALLATIN       CLEAR     61  52  72 E6        29.62F
CROSSVILLE     CLEAR     53  46  77 S5        29.67R
$$

TNZ061-075-076-078-094-096-097-220100-
SOUTH MIDDLE TENNESSEE

CITY           SKY/WX    TMP DP  RH WIND       PRES   REMARKS
TULLAHOMA      CLEAR     55  48  76 CALM      29.65R
WINCHESTER     CLEAR     57  52  82 S3        29.64S
MCMINNVILLE    CLEAR     54  52  94 E3        29.62F
COLUMBIA       PTCLDY    61  61 100 CALM      29.61R
SHELBYVILLE    CLEAR     61  52  72 S3        29.64R
$$

TNZ017-018-042-046-047-220100-
NORTHEAST TENNESSEE

CITY           SKY/WX    TMP DP  RH WIND       PRES   REMARKS
TRI CITIES     CLOUDY    54  52  93 CALM      29.67S
ELIZABETHTON   CLOUDY    55  50  82 E5        29.67S
$$

TNZ012-013-036-069-073-074-220100-
CENTRAL EAST TENNESSEE

CITY           SKY/WX    TMP DP  RH WIND       PRES   REMARKS
KNOXVILLE      CLOUDY    57  51  80 N3        29.66R
OAK RIDGE      CLOUDY    56  51  84 CALM      29.68R
GATLINBURG     CLOUDY    54  50  87 CALM      29.66R
MORRISTOWN     CLOUDY    55  52  88 CALM      29.65R
JACKSBORO      CLOUDY    52  50  93 CALM      29.69S
$$

TNZ083-085-099-220100-
SOUTHEAST TENNESSEE

CITY           SKY/WX    TMP DP  RH WIND       PRES   REMARKS
CHATTANOOGA    MOCLDY    61  52  72 CALM      29.65S
$$

SKY/WX REPORTED AS FAIR MEANS FEW OR NO CLOUDS BELOW
12 THOUSAND FEET.




USA.gov is the U.S. government's official web portal to all federal, state and local government web resources and services.